Regional Weather Roundup
Issued by NWS Charleston, SC

Current Version | Previous Version | Graphics & Text | Print | Product List | Glossary On
Versions: 1 2 3 4 5 6 7 8 9 10 11 12 13 14 15 16 17 18 19 20 21 22 23 24 25 26 27 28 29 30 31 32 33 34 35 36 37 38 39 40 41 42 43 44 45 46 47 48 49 50
000 ASUS42 KCHS 242212 RWRCHS REGIONAL WEATHER ROUNDUP NATIONAL WEATHER SERVICE CHARLESTON SC 600 PM EDT SUN MAY 24 2015 NOTE: "FAIR" INDICATES FEW OR NO CLOUDS BELOW 12,000 FEET WITH NO SIGNIFICANT WEATHER AND/OR OBSTRUCTIONS TO VISIBILITY. NOT ALL STATIONS ARE QUALITY CONTROLLED BY THE NATIONAL WEATHER SERVICE. USE DATA WITH CAUTION...ESPECIALLY DEWPOINT OBSERVATIONS. SCZ027-030-031-034>040-042>050-242300- ...SOUTHEAST SOUTH CAROLINA... CITY SKY/WX TMP DP RH WIND PRES REMARKS N CHARLESTON MOSUNNY 78 59 51 E16 30.30F WATERFRONT PAR N/A 76 64 66 E13 30.28S MOUNT PLEASANT FAIR 79 63 57 E5 30.31S JOHNS ISLAND MOCLDY 77 64 65 E14 30.30F PINOPOLIS N/A 84 57 39 VRB2 30.21F MONCKS CORNER MOCLDY 79 57 47 SE5 30.30F SUMMERVILLE FAIR 81 61 50 E7 30.30F BEAUFORT MCAS PTSUNNY 78 63 59 E13G21 30.29S BEAUFORT ARPT MOCLDY 77 64 65 E14 30.28S HILTON HEAD IS MOSUNNY 77 66 69 NE10G17 30.29F WALTERBORO CLEAR 79 57 47 SE13 30.29S ALLENDALE MOCLDY 82 59 44 E10G17 30.27R ...SOUTHERN MIDLANDS AND PEE DEE... CITY SKY/WX TMP DP RH WIND PRES REMARKS GEORGETOWN NOT AVBL KINGSTREE NOT AVBL ORANGEBURG MOSUNNY 81 55 40 SE8 30.28F BARNWELL MOCLDY 82 55 39 E10 30.27S AIKEN FAIR 82 48 30 SE12G17 30.30S MANNING FAIR 79 54 41 E9 30.30F COLUMBIA MOSUNNY 84 53 34 SE13G20 30.27F SUMTER MOSUNNY 82 55 39 SE9G16 30.27F FLORENCE SUNNY 82 54 37 S13 30.30F MYRTLE BEACH MOSUNNY 79 57 47 SE14 30.36S N MYRTLE BEACH SUNNY 77 59 53 E9 30.34F $$ GAZ063-065-086>088-099>101-113>116-118-119-134>141-150-242300- ...SOUTHEAST GEORGIA... CITY SKY/WX TMP DP RH WIND PRES REMARKS SAVANNAH ARPT PTSUNNY 79 63 57 E17 30.27S HUNTER AAF PTSUNNY 78 65 64 E16G24 30.25S FORT STEWART NOT AVBL STATESBORO MOSUNNY 82 63 52 SE5 30.26R SYLVANIA PTCLDY 83 63 50 SE10 30.27S CLAXTON FAIR 81 59 47 E8G16 30.25S ...CSRA...CENTRAL AND FAR SOUTHEAST GEORGIA... CITY SKY/WX TMP DP RH WIND PRES REMARKS THOMSON MOSUNNY 86 58 38 SE7 30.29S AUGUSTA-BUSH SUNNY 85 55 35 SE13 30.24S AUGUSTA-DANIEL SUNNY 85 54 34 S9 30.26S SWAINSBORO CLOUDY 84 57 39 E10 30.25S VIDALIA PTSUNNY 84 57 39 E15 30.23F EASTMAN FAIR 88 59 37 E7 30.24S HAZLEHURST FAIR 86 58 38 E8 30.21F ALMA MOSUNNY 82 59 45 E13G21 30.22F WAYCROSS MOSUNNY 84 62 47 E14 30.22F JESUP FAIR 86 64 48 SE9 30.24S BAXLEY FAIR 86 59 39 E13G18 30.22F BRUNSWICK PTSUNNY 81 64 57 NE10 30.26R SAINT SIMONS NOT AVBL $$ SCZ027-028-034-036>038-045-046-048>050-GAZ119-141-242300- ...LAKE AND SUPPLEMENTAL COASTAL OBSERVATIONS... STATION/POSITION TIME TEMP WIND PRES WAVE SWELL AIR SEA DIR/SP/G HT/PER HT/PER/DIR (UTC) (F) (DEG/KT/KT) (MB) (FT/S) (FT/S/D) UPR LAKE MARION NOT AVBL WINYAH BAY 2045 76 90/ 12 1026.0 LAKE MURRAY 2100 80 110/ 7/ 11 1024.7F ACE BASIN NERRS 2045 80 110/ 5 1026.0 FORT PULASKI 2100 76 78 70/ 19/ 21 1025.7F SAPELO ISLAND 2100 80 60/ 12 1024.0F $$ ANZ835-935-AMZ111-154-330-350-352-354-370-450-454-472-242300- ...C-MAN AND BUOY OBSERVATIONS... STATION/POSITION TIME TEMP WIND PRES WAVE SWELL AIR SEA DIR/SP/G HT/PER HT/PER/DIR (UTC) (F) (DEG/KT/KT) (MB) (FT/S) (FT/S/D) BUOY 41004 2150 76 75 90/ 16/ 21 1025.5F 5/ 5 2/13 BUOY 41008 2150 76 75 60/ 10/ 12 1024.2F 4/ 8 3/100/ 8 FOLLY BEACH CMAN 2200 76 70/ 14/ 17 1026.2F CAPERS NEARSHORE 2108 75 80/ 14/ 17 1026.5F FRIPP NEARSHORE 2100 77 80/ 17/ 19 1024.6F STATION/POSITION TIME TEMP WIND PRES WAVE SWELL AIR SEA DIR/SP/G HT/PER HT/PER/DIR (UTC) (F) (DEG/KT/KT) (MB) (FT/S) (FT/S/D) 5E ST. MARYS GA 2121 78 N/A 3/ 8 FRYING PAN BUOY 2150 76 74 110/ 12/ 14 1027.9F BUOY 41025 2150 73 78 30/ 6/ 8 1028.3F 2/ 7 2/ 60/ 7 CAPE LOOKOUT NC 2200 74 110/ 8/ 9 1027.4F BUOY 41002 2150 72 74 80/ 16/ 17 1026.7S 5/ 7 2/100/ 9 BUOY 41010 2120 79 80 90/ 12/ 16 1022.6F ST AUGUSTINE FL 2200 77 79 40/ 12/ 13 1023.4F $$

USA.gov is the U.S. government's official web portal to all federal, state and local government web resources and services.